Location: Berlin
(52.5171°N, 13.3759°E)
Time: 13:31:20
(UTC+01:00)

ISS - Pass Details

Date: 12 January 2018
Orbit: 402 x 407 km, 51.6° (Epoch: 21 January)

Event Time Altitude Azimuth Distance (km) Brightness Sun altitude
Exits shadow 04:51:02 13° 112° (ESE) 1,302 -0.6 -29.7°
Drops below altitude 10° 04:51:26 10° 111° (ESE) 1,466 -0.2 -29.6°
Sets 04:53:31 0° 108° (ESE) 2,326 1.1 -29.3°
